,,,PA_Meas_PMT16A,,PR_Meas_QMR101_102,,RH_Meas_QMH101,,SR_Meas_QMS101,,TA_Meas_QMH101,,GenWind,,GenWind,
date,time,status,PA,status,PR,status,RH,status,SR,status,TA,status,DirAvg,status,SpdAvg,
2012-11-23, 00:00:04,VALID,1009.51,VALID,0,VALID,104,VALID,0,VALID,23.9845,VALID,97,VALID,0,
2012-11-23, 00:01:04,VALID,1009.49,VALID,0,VALID,104,VALID,0,VALID,23.9668,VALID,97,VALID,0,
2012-11-23, 00:02:04,VALID,1009.45,VALID,0,VALID,104,VALID,0,VALID,23.9668,VALID,97,VALID,0,
2012-11-23, 00:03:04,VALID,1009.44,VALID,0,VALID,104,VALID,0.112112,VALID,23.965,VALID,97,VALID,0,
2012-11-23, 00:04:04,VALID,1009.45,VALID,0,VALID,104,VALID,0,VALID,23.965,VALID,97,VALID,0,
2012-11-23, 00:05:04,VALID,1009.44,VALID,0,VALID,104,VALID,0,VALID,23.965,VALID,97,VALID,0,
2012-11-23, 00:06:04,VALID,1009.43,VALID,0,VALID,104,VALID,0,VALID,24.0058,VALID,97,VALID,0.30625,
2012-11-23, 00:07:04,VALID,1009.44,VALID,0,VALID,104,VALID,0,VALID,24.0058,VALID,97,VALID,0.194922,
2012-11-23, 00:08:04,VALID,1009.44,VALID,0,VALID,104,VALID,0,VALID,23.9863,VALID,97,VALID,0.276953,
2012-11-23, 00:09:04,VALID,1009.42,VALID,0,VALID,104,VALID,0,VALID,23.965,VALID,97,VALID,0.194922,
2012-11-23, 00:10:04,VALID,1009.41,VALID,0,VALID,104,VALID,0,VALID,23.9455,VALID,97,VALID,0,
2012-11-23, 00:11:04,VALID,1009.39,VALID,0,VALID,104,VALID,0,VALID,23.9473,VALID,97,VALID,0,
2012-11-23, 00:12:04,VALID,1009.4,VALID,0,VALID,104,VALID,0,VALID,23.9668,VALID,97,VALID,0,
2012-11-23, 00:13:04,VALID,1009.45,VALID,0,VALID,104,VALID,0,VALID,23.926,VALID,97,VALID,0,
2012-11-23, 00:14:04,VALID,1009.43,VALID,0,VALID,104,VALID,0,VALID,23.9473,VALID,97,VALID,0,
2012-11-23, 00:15:04,VALID,1009.42,VALID,0,VALID,104,VALID,0,VALID,23.9278,VALID,97,VALID,0,
2012-11-23, 00:16:04,VALID,1009.45,VALID,0,VALID,104,VALID,0,VALID,23.9065,VALID,97,VALID,0.706641,
2012-11-23, 00:17:04,VALID,1009.48,VALID,0,VALID,104,VALID,0,VALID,23.9278,VALID,97,VALID,0.419531,
2012-11-23, 00:18:04,VALID,1009.49,VALID,0,VALID,104,VALID,0,VALID,23.9065,VALID,97,VALID,0.469922,
2012-11-23, 00:19:04,VALID,1009.51,VALID,0,VALID,104,VALID,0.112112,VALID,23.8871,VALID,93,VALID,0.367188,
2012-11-23, 00:20:04,VALID,1009.53,VALID,0,VALID,104,VALID,0.112112,VALID,23.8871,VALID,93,VALID,0.330859,
2012-11-23, 00:21:04,VALID,1009.54,VALID,0,VALID,104,VALID,0,VALID,23.9065,VALID,93,VALID,0.454688,
2012-11-23, 00:22:04,VALID,1009.51,VALID,0,VALID,104,VALID,0,VALID,23.9278,VALID,93,VALID,0.500391,
2012-11-23, 00:23:04,VALID,1009.48,VALID,0,VALID,104,VALID,0,VALID,23.9084,VALID,93,VALID,0.441797,
2012-11-23, 00:24:04,VALID,1009.48,VALID,0,VALID,104,VALID,0.112112,VALID,23.926,VALID,93,VALID,0.501562,
2012-11-23, 00:25:04,VALID,1009.46,VALID,0,VALID,104,VALID,0,VALID,23.8871,VALID,93,VALID,0.0261719,
2012-11-23, 00:26:04,VALID,1009.45,VALID,0,VALID,104,VALID,0.112112,VALID,23.8658,VALID,93,VALID,0,
2012-11-23, 00:27:04,VALID,1009.43,VALID,0,VALID,104,VALID,0.112112,VALID,23.8676,VALID,93,VALID,0,
2012-11-23, 00:28:04,VALID,1009.41,VALID,0,VALID,104,VALID,0,VALID,23.8676,VALID,93,VALID,0,
2012-11-23, 00:29:04,VALID,1009.39,VALID,0,VALID,104,VALID,0.112112,VALID,23.8676,VALID,93,VALID,0,
2012-11-23, 00:30:04,VALID,1009.37,VALID,0,VALID,104,VALID,0.112112,VALID,23.8676,VALID,93,VALID,0,
2012-11-23, 00:31:04,VALID,1009.38,VALID,0,VALID,104,VALID,0.112112,VALID,23.8676,VALID,93,VALID,0,
2012-11-23, 00:32:04,VALID,1009.39,VALID,0,VALID,104,VALID,0,VALID,23.8481,VALID,93,VALID,0,
2012-11-23, 00:33:04,VALID,1009.36,VALID,0,VALID,104,VALID,0,VALID,23.8091,VALID,93,VALID,0,
2012-11-23, 00:34:04,VALID,1009.32,VALID,0,VALID,104,VALID,0,VALID,23.7896,VALID,93,VALID,0,
2012-11-23, 00:35:04,VALID,1009.31,VALID,0,VALID,104,VALID,0.112112,VALID,23.7507,VALID,93,VALID,0,
2012-11-23, 00:36:04,VALID,1009.3,VALID,0,VALID,104,VALID,0,VALID,23.733,VALID,92,VALID,0,
2012-11-23, 00:37:04,VALID,1009.22,VALID,0,VALID,104,VALID,0,VALID,23.6727,VALID,93,VALID,0,
2012-11-23, 00:38:04,VALID,1009.19,VALID,0,VALID,104,VALID,0,VALID,23.6745,VALID,93,VALID,0,
2012-11-23, 00:39:04,VALID,1009.14,VALID,0,VALID,104,VALID,0.112112,VALID,23.6532,VALID,93,VALID,0,
2012-11-23, 00:40:04,VALID,1009.11,VALID,0,VALID,104,VALID,0,VALID,23.6532,VALID,93,VALID,0,
2012-11-23, 00:41:04,VALID,1009.08,VALID,0,VALID,104,VALID,0,VALID,23.6532,VALID,93,VALID,0,
2012-11-23, 00:42:04,VALID,1009.07,VALID,0,VALID,104,VALID,0,VALID,23.6532,VALID,93,VALID,0,
2012-11-23, 00:43:04,VALID,1009.07,VALID,0,VALID,104,VALID,0,VALID,23.655,VALID,93,VALID,0,
2012-11-23, 00:44:04,VALID,1009.08,VALID,0,VALID,104,VALID,0,VALID,23.6356,VALID,108,VALID,0.682422,
2012-11-23, 00:45:04,VALID,1009.06,VALID,0,VALID,104,VALID,0,VALID,23.6532,VALID,128,VALID,0.644531,
2012-11-23, 00:46:04,VALID,1009.04,VALID,0,VALID,104,VALID,0.112112,VALID,23.6532,VALID,135,VALID,0.551172,
2012-11-23, 00:47:04,VALID,1009.01,VALID,0,VALID,104,VALID,0.112112,VALID,23.6338,VALID,135,VALID,0.507813,
2012-11-23, 00:48:04,VALID,1008.99,VALID,0,VALID,104,VALID,0,VALID,23.655,VALID,135,VALID,0.553516,
2012-11-23, 00:49:04,VALID,1008.97,VALID,0,VALID,104,VALID,0.112112,VALID,23.6338,VALID,136,VALID,0.398828,
2012-11-23, 00:50:04,VALID,1008.94,VALID,0,VALID,104,VALID,0.112112,VALID,23.6143,VALID,136,VALID,0.327344,
2012-11-23, 00:51:04,VALID,1008.92,VALID,0,VALID,104,VALID,0.112112,VALID,23.694,VALID,136,VALID,0.431641,
2012-11-23, 00:52:04,VALID,1008.89,VALID,0,VALID,104,VALID,0,VALID,23.6143,VALID,137,VALID,0.319922,
2012-11-23, 00:53:04,VALID,1008.89,VALID,0,VALID,104,VALID,0,VALID,23.6143,VALID,137,VALID,0.354297,
2012-11-23, 00:54:04,VALID,1008.86,VALID,0,VALID,104,VALID,0,VALID,23.6143,VALID,137,VALID,0.180859,
2012-11-23, 00:55:04,VALID,1008.81,VALID,0,VALID,104,VALID,0.112112,VALID,23.5948,VALID,137,VALID,0,
2012-11-23, 00:56:04,VALID,1008.8,VALID,0,VALID,104,VALID,0,VALID,23.6143,VALID,126,VALID,0.650781,
2012-11-23, 00:57:04,VALID,1008.78,VALID,0,VALID,104,VALID,0,VALID,23.6161,VALID,120,VALID,0.192578,
2012-11-23, 00:58:04,VALID,1008.76,VALID,0,VALID,104,VALID,0,VALID,23.6143,VALID,85,VALID,0.309375,
2012-11-23, 00:59:04,VALID,1008.72,VALID,0,VALID,104,VALID,0,VALID,23.6143,VALID,85,VALID,0.307813,
2012-11-23, 01:00:04,VALID,1008.73,VALID,0,VALID,104,VALID,0.112112,VALID,23.6338,VALID,90,VALID,0.412891,
2012-11-23, 01:01:04,VALID,1008.7,VALID,0,VALID,104,VALID,0,VALID,23.6356,VALID,90,VALID,0.0703125,
2012-11-23, 01:02:04,VALID,1008.67,VALID,0,VALID,104,VALID,0,VALID,23.6356,VALID,90,VALID,0,
2012-11-23, 01:03:04,VALID,1008.66,VALID,0,VALID,104,VALID,0,VALID,23.6161,VALID,90,VALID,0,
2012-11-23, 01:04:04,VALID,1008.65,VALID,0,VALID,104,VALID,0,VALID,23.6161,VALID,90,VALID,0,
2012-11-23, 01:05:04,VALID,1008.67,VALID,0,VALID,104,VALID,0.112112,VALID,23.6161,VALID,90,VALID,0,
2012-11-23, 01:06:04,VALID,1008.64,VALID,0,VALID,104,VALID,0.112112,VALID,23.6161,VALID,90,VALID,0,
2012-11-23, 01:07:04,VALID,1008.62,VALID,0,VALID,104,VALID,0,VALID,23.6161,VALID,90,VALID,0,
2012-11-23, 01:08:04,VALID,1008.6,VALID,0,VALID,104,VALID,0,VALID,23.6161,VALID,90,VALID,0,
2012-11-23, 01:09:04,VALID,1008.59,VALID,0,VALID,104,VALID,0,VALID,23.5948,VALID,91,VALID,0,
2012-11-23, 01:10:04,VALID,1008.61,VALID,0,VALID,104,VALID,0.112112,VALID,23.6338,VALID,71,VALID,0.512109,
2012-11-23, 01:11:04,VALID,1008.61,VALID,0,VALID,104,VALID,0,VALID,23.6161,VALID,70,VALID,0.537109,
2012-11-23, 01:12:04,VALID,1008.6,VALID,0,VALID,104,VALID,0.112112,VALID,23.5948,VALID,71,VALID,0.274609,
2012-11-23, 01:13:04,VALID,1008.6,VALID,0,VALID,104,VALID,0.112112,VALID,23.5948,VALID,71,VALID,0.596094,
2012-11-23, 01:14:04,VALID,1008.59,VALID,0,VALID,104,VALID,0.112112,VALID,23.5948,VALID,71,VALID,0.233203,
2012-11-23, 01:15:04,VALID,1008.55,VALID,0,VALID,104,VALID,0.112112,VALID,23.6356,VALID,71,VALID,0.570313,
2012-11-23, 01:16:04,VALID,1008.51,VALID,0,VALID,104,VALID,0,VALID,23.5966,VALID,70,VALID,0.701953,
2012-11-23, 01:17:04,VALID,1008.49,VALID,0,VALID,104,VALID,0,VALID,23.5753,VALID,64,VALID,0.904688,
2012-11-23, 01:18:04,VALID,1008.47,VALID,0,VALID,104,VALID,0,VALID,23.5753,VALID,48,VALID,0.723047,
2012-11-23, 01:19:04,VALID,1008.47,VALID,0,VALID,104,VALID,0.112112,VALID,23.5771,VALID,47,VALID,0.658984,
2012-11-23, 01:20:04,VALID,1008.45,VALID,0,VALID,104,VALID,0,VALID,23.5558,VALID,47,VALID,0.5125,
2012-11-23, 01:21:04,VALID,1008.46,VALID,0,VALID,104,VALID,0,VALID,23.5363,VALID,47,VALID,0.492578,
2012-11-23, 01:22:04,VALID,1008.48,VALID,0,VALID,104,VALID,0,VALID,23.5363,VALID,30,VALID,0.422266,
2012-11-23, 01:23:04,VALID,1008.47,VALID,0,VALID,104,VALID,0,VALID,23.5381,VALID,30,VALID,0.482812,
2012-11-23, 01:24:04,VALID,1008.5,VALID,0,VALID,104,VALID,0,VALID,23.5186,VALID,30,VALID,0,
2012-11-23, 01:25:04,VALID,1008.52,VALID,0,VALID,104,VALID,0,VALID,23.5186,VALID,30,VALID,0.279687,
2012-11-23, 01:26:04,VALID,1008.49,VALID,0,VALID,104,VALID,0.112112,VALID,23.5186,VALID,30,VALID,0,
2012-11-23, 01:27:04,VALID,1008.51,VALID,0,VALID,104,VALID,0,VALID,23.5186,VALID,30,VALID,0,
2012-11-23, 01:28:04,VALID,1008.49,VALID,0,VALID,104,VALID,0,VALID,23.4992,VALID,30,VALID,0,
2012-11-23, 01:29:04,VALID,1008.49,VALID,0,VALID,104,VALID,0.112112,VALID,23.4992,VALID,30,VALID,0,
2012-11-23, 01:30:04,VALID,1008.49,VALID,0,VALID,104,VALID,0,VALID,23.4797,VALID,30,VALID,0,
2012-11-23, 01:31:04,VALID,1008.51,VALID,0,VALID,104,VALID,0,VALID,23.4797,VALID,30,VALID,0,
2012-11-23, 01:32:04,VALID,1008.47,VALID,0,VALID,104,VALID,0,VALID,23.4779,VALID,30,VALID,0,
2012-11-23, 01:33:04,VALID,1008.45,VALID,0,VALID,104,VALID,0.112112,VALID,23.4797,VALID,30,VALID,0,
2012-11-23, 01:34:04,VALID,1008.46,VALID,0,VALID,104,VALID,0.112112,VALID,23.4389,VALID,31,VALID,0,
2012-11-23, 01:35:04,VALID,1008.44,VALID,0,VALID,104,VALID,0,VALID,23.4407,VALID,30,VALID,0,
2012-11-23, 01:36:04,VALID,1008.46,VALID,0,VALID,104,VALID,0,VALID,23.4407,VALID,30,VALID,0.359766,
2012-11-23, 01:37:04,VALID,1008.43,VALID,0,VALID,104,VALID,0,VALID,23.4602,VALID,31,VALID,0.463281,
2012-11-23, 01:38:04,VALID,1008.43,VALID,0,VALID,104,VALID,0.112112,VALID,23.4194,VALID,30,VALID,0.432813,
2012-11-23, 01:39:04,VALID,1008.43,VALID,0,VALID,104,VALID,0,VALID,23.4407,VALID,31,VALID,0.49375,
2012-11-23, 01:40:04,VALID,1008.42,VALID,0,VALID,104,VALID,0,VALID,23.4797,VALID,35,VALID,0.714453,
2012-11-23, 01:41:04,VALID,1008.45,VALID,0,VALID,104,VALID,0,VALID,23.4797,VALID,53,VALID,0.692969,
2012-11-23, 01:42:04,VALID,1008.42,VALID,0,VALID,104,VALID,0.112112,VALID,23.4779,VALID,77,VALID,0.901563,
2012-11-23, 01:43:04,VALID,1008.42,VALID,0,VALID,104,VALID,0.112112,VALID,23.4779,VALID,88,VALID,0.675,
2012-11-23, 01:44:04,VALID,1008.42,VALID,0,VALID,104,VALID,0,VALID,23.4779,VALID,84,VALID,0.683984,
2012-11-23, 01:45:04,VALID,1008.45,VALID,0,VALID,104,VALID,0.112112,VALID,23.5186,VALID,74,VALID,0.517578,
2012-11-23, 01:46:04,VALID,1008.43,VALID,0,VALID,104,VALID,0,VALID,23.4974,VALID,74,VALID,0.235156,
2012-11-23, 01:47:04,VALID,1008.44,VALID,0,VALID,104,VALID,0,VALID,23.4992,VALID,81,VALID,0.539063,
2012-11-23, 01:48:04,VALID,1008.44,VALID,0,VALID,104,VALID,0.112112,VALID,23.5381,VALID,105,VALID,0.732813,
2012-11-23, 01:49:04,VALID,1008.44,VALID,0,VALID,104,VALID,0.112112,VALID,23.5169,VALID,100,VALID,0.303906,
2012-11-23, 01:50:04,VALID,1008.49,VALID,0,VALID,104,VALID,0,VALID,23.4992,VALID,122,VALID,0.914063,
2012-11-23, 01:51:04,VALID,1008.49,VALID,0,VALID,104,VALID,0,VALID,23.4974,VALID,121,VALID,0.509766,
2012-11-23, 01:52:04,VALID,1008.53,VALID,0,VALID,104,VALID,0,VALID,23.5186,VALID,121,VALID,0.431641,
2012-11-23, 01:53:04,VALID,1008.53,VALID,0,VALID,104,VALID,0,VALID,23.4992,VALID,121,VALID,0.329297,
2012-11-23, 01:54:04,VALID,1008.53,VALID,0,VALID,104,VALID,0,VALID,23.4779,VALID,121,VALID,0.451953,
2012-11-23, 01:55:04,VALID,1008.54,VALID,0,VALID,104,VALID,0.112112,VALID,23.4992,VALID,130,VALID,0.722656,
2012-11-23, 01:56:04,VALID,1008.53,VALID,0,VALID,104,VALID,0,VALID,23.4992,VALID,125,VALID,0.404297,
2012-11-23, 01:57:04,VALID,1008.53,VALID,0,VALID,104,VALID,0.112112,VALID,23.4992,VALID,125,VALID,0.476172,
2012-11-23, 01:58:04,VALID,1008.56,VALID,0,VALID,104,VALID,0,VALID,23.4797,VALID,125,VALID,0.370313,
2012-11-23, 01:59:04,VALID,1008.54,VALID,0,VALID,104,VALID,0,VALID,23.4779,VALID,123,VALID,0.600391,
2012-11-23, 02:00:04,VALID,1008.51,VALID,0,VALID,104,VALID,0,VALID,23.5186,VALID,118,VALID,0.769531,
2012-11-23, 02:01:04,VALID,1008.49,VALID,0,VALID,104,VALID,0,VALID,23.4779,VALID,119,VALID,0.251953,
2012-11-23, 02:02:04,VALID,1008.47,VALID,0,VALID,104,VALID,0.112112,VALID,23.4974,VALID,118,VALID,0.524609,
2012-11-23, 02:03:04,VALID,1008.44,VALID,0,VALID,104,VALID,0,VALID,23.4779,VALID,119,VALID,0.682422,
2012-11-23, 02:04:04,VALID,1008.43,VALID,0,VALID,104,VALID,0,VALID,23.5169,VALID,121,VALID,1.11055,
2012-11-23, 02:05:04,VALID,1008.43,VALID,0,VALID,104,VALID,0.112112,VALID,23.5363,VALID,110,VALID,0.542188,
2012-11-23, 02:06:04,VALID,1008.48,VALID,0,VALID,104,VALID,0.112112,VALID,23.5363,VALID,94,VALID,0.378125,
2012-11-23, 02:07:04,VALID,1008.5,VALID,0,VALID,104,VALID,0,VALID,23.5381,VALID,94,VALID,0.386719,
2012-11-23, 02:08:04,VALID,1008.49,VALID,0,VALID,104,VALID,0,VALID,23.5576,VALID,89,VALID,0.773438,
2012-11-23, 02:09:04,VALID,1008.51,VALID,0,VALID,104,VALID,0,VALID,23.5576,VALID,82,VALID,0.504297,
2012-11-23, 02:10:04,VALID,1008.51,VALID,0,VALID,104,VALID,0.112112,VALID,23.5363,VALID,61,VALID,0.601563,
2012-11-23, 02:11:04,VALID,1008.51,VALID,0,VALID,104,VALID,0.112112,VALID,23.5363,VALID,63,VALID,0.228906,
2012-11-23, 02:12:04,VALID,1008.48,VALID,0,VALID,104,VALID,0.112112,VALID,23.5169,VALID,62,VALID,0.311719,
2012-11-23, 02:13:04,VALID,1008.45,VALID,0,VALID,104,VALID,0.112112,VALID,23.5169,VALID,62,VALID,0.229297,
2012-11-23, 02:14:04,VALID,1008.42,VALID,0,VALID,104,VALID,0,VALID,23.5363,VALID,63,VALID,0.586328,
2012-11-23, 02:15:04,VALID,1008.43,VALID,0,VALID,104,VALID,0,VALID,23.5169,VALID,62,VALID,0.373437,
2012-11-23, 02:16:04,VALID,1008.42,VALID,0,VALID,104,VALID,0,VALID,23.5186,VALID,62,VALID,0.381641,
2012-11-23, 02:17:04,VALID,1008.41,VALID,0,VALID,104,VALID,0,VALID,23.5381,VALID,62,VALID,0.416016,
2012-11-23, 02:18:04,VALID,1008.42,VALID,0,VALID,104,VALID,0,VALID,23.5169,VALID,60,VALID,0.790234,
2012-11-23, 02:19:04,VALID,1008.42,VALID,0,VALID,104,VALID,0,VALID,23.5186,VALID,60,VALID,0.712891,
2012-11-23, 02:20:04,VALID,1008.42,VALID,0,VALID,104,VALID,0.112112,VALID,23.4974,VALID,54,VALID,0.682813,
2012-11-23, 02:21:04,VALID,1008.38,VALID,0,VALID,104,VALID,0,VALID,23.4974,VALID,57,VALID,0.663281,
2012-11-23, 02:22:04,VALID,1008.38,VALID,0,VALID,104,VALID,0.112112,VALID,23.4974,VALID,73,VALID,1.24805,
2012-11-23, 02:23:04,VALID,1008.34,VALID,0,VALID,104,VALID,0,VALID,23.5169,VALID,61,VALID,1.21211,
2012-11-23, 02:24:04,VALID,1008.32,VALID,0,VALID,104,VALID,0,VALID,23.5186,VALID,57,VALID,0.632031,
2012-11-23, 02:25:04,VALID,1008.32,VALID,0,VALID,104,VALID,0.112112,VALID,23.4974,VALID,57,VALID,0.566406,
2012-11-23, 02:26:04,VALID,1008.29,VALID,0,VALID,104,VALID,0,VALID,23.4584,VALID,55,VALID,0.474609,
2012-11-23, 02:27:04,VALID,1008.3,VALID,0,VALID,104,VALID,0,VALID,23.4779,VALID,55,VALID,0.842578,
2012-11-23, 02:28:04,VALID,1008.26,VALID,0,VALID,104,VALID,0.112112,VALID,23.4584,VALID,55,VALID,0.614062,
2012-11-23, 02:29:04,VALID,1008.29,VALID,0,VALID,104,VALID,0.112112,VALID,23.4584,VALID,89,VALID,0.616016,
2012-11-23, 02:30:04,VALID,1008.29,VALID,0,VALID,104,VALID,0.112112,VALID,23.4389,VALID,64,VALID,1.25547,
2012-11-23, 02:31:04,VALID,1008.31,VALID,0,VALID,104,VALID,0,VALID,23.462,VALID,68,VALID,0.367969,
2012-11-23, 02:32:04,VALID,1008.29,VALID,0,VALID,104,VALID,0,VALID,23.4212,VALID,68,VALID,0.545703,
2012-11-23, 02:33:04,VALID,1008.32,VALID,0,VALID,104,VALID,0,VALID,23.4017,VALID,68,VALID,0.125781,
2012-11-23, 02:34:04,VALID,1008.32,VALID,0,VALID,104,VALID,0,VALID,23.4017,VALID,68,VALID,0.00117188,
2012-11-23, 02:35:04,VALID,1008.34,VALID,0,VALID,104,VALID,0,VALID,23.423,VALID,68,VALID,0,
2012-11-23, 02:36:04,VALID,1008.35,VALID,0,VALID,104,VALID,0,VALID,23.4017,VALID,68,VALID,0,
2012-11-23, 02:37:04,VALID,1008.32,VALID,0,VALID,104,VALID,0,VALID,23.3823,VALID,71,VALID,0.537891,
2012-11-23, 02:38:04,VALID,1008.31,VALID,0,VALID,104,VALID,0,VALID,23.3628,VALID,71,VALID,0.230078,
2012-11-23, 02:39:04,VALID,1008.32,VALID,0,VALID,104,VALID,0,VALID,23.4035,VALID,71,VALID,0.284375,
2012-11-23, 02:40:04,VALID,1008.34,VALID,0,VALID,104,VALID,0,VALID,23.384,VALID,71,VALID,0.139453,
2012-11-23, 02:41:04,VALID,1008.32,VALID,0,VALID,104,VALID,0,VALID,23.384,VALID,42,VALID,0.497266,
2012-11-23, 02:42:04,VALID,1008.34,VALID,0,VALID,104,VALID,0,VALID,23.3645,VALID,43,VALID,0.472266,
2012-11-23, 02:43:04,VALID,1008.36,VALID,0,VALID,104,VALID,0,VALID,23.3451,VALID,42,VALID,0.430469,
2012-11-23, 02:44:04,VALID,1008.35,VALID,0,VALID,104,VALID,0,VALID,23.3043,VALID,42,VALID,0.222266,
2012-11-23, 02:45:04,VALID,1008.36,VALID,0,VALID,104,VALID,0,VALID,23.3433,VALID,42,VALID,0.2,
2012-11-23, 02:46:04,VALID,1008.39,VALID,0,VALID,104,VALID,0,VALID,23.3433,VALID,43,VALID,0.580469,
2012-11-23, 02:47:04,VALID,1008.38,VALID,0,VALID,104,VALID,0,VALID,23.3433,VALID,43,VALID,0.372656,
2012-11-23, 02:48:04,VALID,1008.38,VALID,0,VALID,104,VALID,0,VALID,23.3238,VALID,60,VALID,0.389453,
2012-11-23, 02:49:04,VALID,1008.37,VALID,0,VALID,104,VALID,0,VALID,23.3238,VALID,60,VALID,0.266797,
2012-11-23, 02:50:04,VALID,1008.33,VALID,0,VALID,104,VALID,0,VALID,23.3256,VALID,60,VALID,0.421484,
2012-11-23, 02:51:04,VALID,1008.29,VALID,0,VALID,104,VALID,0,VALID,23.3238,VALID,61,VALID,0.579687,
2012-11-23, 02:52:04,VALID,1008.3,VALID,0,VALID,104,VALID,0,VALID,23.3238,VALID,90,VALID,0.51875,
2012-11-23, 02:53:04,VALID,1008.27,VALID,0,VALID,104,VALID,0,VALID,23.3238,VALID,80,VALID,0.762891,
2012-11-23, 02:54:04,VALID,1008.29,VALID,0,VALID,104,VALID,0,VALID,23.3043,VALID,79,VALID,0.475391,
2012-11-23, 02:55:04,VALID,1008.31,VALID,0,VALID,104,VALID,0,VALID,23.3043,VALID,63,VALID,0.672266,
2012-11-23, 02:56:04,VALID,1008.3,VALID,0,VALID,104,VALID,0,VALID,23.3256,VALID,72,VALID,0.536328,
2012-11-23, 02:57:04,VALID,1008.31,VALID,0,VALID,104,VALID,0,VALID,23.3061,VALID,73,VALID,0.646875,
2012-11-23, 02:58:04,VALID,1008.34,VALID,0,VALID,104,VALID,0,VALID,23.3061,VALID,80,VALID,0.396484,
2012-11-23, 02:59:04,VALID,1008.34,VALID,0,VALID,104,VALID,0,VALID,23.2848,VALID,59,VALID,0.744141,
2012-11-23, 03:00:04,VALID,1008.37,VALID,0,VALID,104,VALID,0,VALID,23.2848,VALID,61,VALID,0.5625,
2012-11-23, 03:01:04,VALID,1008.36,VALID,0,VALID,104,VALID,0,VALID,23.2831,VALID,61,VALID,0.177734,
2012-11-23, 03:02:04,VALID,1008.4,VALID,0,VALID,104,VALID,0,VALID,23.2441,VALID,61,VALID,0.451953,
2012-11-23, 03:03:04,VALID,1008.44,VALID,0,VALID,104,VALID,0,VALID,23.2459,VALID,61,VALID,0,
2012-11-23, 03:04:04,VALID,1008.42,VALID,0,VALID,104,VALID,0,VALID,23.2459,VALID,62,VALID,0.728516,
2012-11-23, 03:05:04,VALID,1008.43,VALID,0,VALID,104,VALID,0,VALID,23.2848,VALID,62,VALID,0.0503906,
2012-11-23, 03:06:04,VALID,1008.44,VALID,0,VALID,104,VALID,0,VALID,23.2848,VALID,55,VALID,0.353906,
2012-11-23, 03:07:04,VALID,1008.5,VALID,0,VALID,104,VALID,0,VALID,23.2654,VALID,55,VALID,0.0332031,
2012-11-23, 03:08:04,VALID,1008.47,VALID,0,VALID,104,VALID,0,VALID,23.3043,VALID,87,VALID,0.95625,
2012-11-23, 03:09:04,VALID,1008.48,VALID,0,VALID,104,VALID,0,VALID,23.2441,VALID,84,VALID,0.632813,
2012-11-23, 03:10:04,VALID,1008.49,VALID,0,VALID,104,VALID,0,VALID,23.2654,VALID,70,VALID,1.34727,
2012-11-23, 03:11:04,VALID,1008.55,VALID,0,VALID,104,VALID,0,VALID,23.2866,VALID,72,VALID,1.05508,
2012-11-23, 03:12:04,VALID,1008.55,VALID,0,VALID,104,VALID,0,VALID,23.2848,VALID,70,VALID,0.435547,
2012-11-23, 03:13:04,VALID,1008.57,VALID,0,VALID,104,VALID,0,VALID,23.2848,VALID,71,VALID,1.27344,
2012-11-23, 03:14:04,VALID,1008.54,VALID,0,VALID,104,VALID,0,VALID,23.2654,VALID,65,VALID,0.546484,
2012-11-23, 03:15:04,VALID,1008.55,VALID,0,VALID,104,VALID,0.112112,VALID,23.2441,VALID,95,VALID,1.36211,
2012-11-23, 03:16:04,VALID,1008.53,VALID,0,VALID,104,VALID,0,VALID,23.2654,VALID,85,VALID,1.05469,
2012-11-23, 03:17:04,VALID,1008.57,VALID,0,VALID,104,VALID,0.112112,VALID,23.2848,VALID,65,VALID,0.607031,
2012-11-23, 03:18:04,VALID,1008.59,VALID,0,VALID,104,VALID,0,VALID,23.2654,VALID,64,VALID,0.725,
2012-11-23, 03:19:04,VALID,1008.62,VALID,0,VALID,104,VALID,0,VALID,23.2848,VALID,87,VALID,0.905078,
2012-11-23, 03:20:04,VALID,1008.64,VALID,0,VALID,104,VALID,0,VALID,23.2654,VALID,67,VALID,0.806641,
2012-11-23, 03:21:04,VALID,1008.67,VALID,0,VALID,104,VALID,0,VALID,23.2441,VALID,63,VALID,0.769922,
2012-11-23, 03:22:04,VALID,1008.68,VALID,0,VALID,104,VALID,0,VALID,23.2636,VALID,79,VALID,0.867969,
2012-11-23, 03:23:04,VALID,1008.72,VALID,0,VALID,104,VALID,0,VALID,23.2848,VALID,83,VALID,0.710156,
2012-11-23, 03:24:04,VALID,1008.7,VALID,0,VALID,104,VALID,0,VALID,23.2654,VALID,83,VALID,0.617578,
2012-11-23, 03:25:04,VALID,1008.72,VALID,0,VALID,104,VALID,0,VALID,23.2654,VALID,66,VALID,0.584375,
2012-11-23, 03:26:04,VALID,1008.74,VALID,0,VALID,104,VALID,0,VALID,23.2654,VALID,49,VALID,0.498047,
2012-11-23, 03:27:04,VALID,1008.79,VALID,0,VALID,104,VALID,0,VALID,23.2866,VALID,50,VALID,0.6375,
2012-11-23, 03:28:04,VALID,1008.81,VALID,0,VALID,104,VALID,0,VALID,23.2848,VALID,73,VALID,0.804688,
2012-11-23, 03:29:04,VALID,1008.86,VALID,0,VALID,104,VALID,0,VALID,23.2654,VALID,72,VALID,1.12891,
2012-11-23, 03:30:04,VALID,1008.87,VALID,0,VALID,104,VALID,0,VALID,23.2848,VALID,68,VALID,0.491406,
2012-11-23, 03:31:04,VALID,1008.87,VALID,0,VALID,104,VALID,0,VALID,23.2848,VALID,81,VALID,1.10234,
2012-11-23, 03:32:04,VALID,1008.92,VALID,0,VALID,104,VALID,0,VALID,23.2848,VALID,69,VALID,0.708203,
2012-11-23, 03:33:04,VALID,1008.92,VALID,0,VALID,104,VALID,0.112112,VALID,23.2831,VALID,83,VALID,0.610547,
2012-11-23, 03:34:04,VALID,1008.92,VALID,0,VALID,104,VALID,0,VALID,23.2848,VALID,83,VALID,0.464063,
2012-11-23, 03:35:04,VALID,1008.97,VALID,0,VALID,104,VALID,0,VALID,23.2848,VALID,97,VALID,0.0839844,
2012-11-23, 03:36:04,VALID,1009.03,VALID,0,VALID,104,VALID,0,VALID,23.3238,VALID,100,VALID,0.501953,
2012-11-23, 03:37:04,VALID,1009.03,VALID,0,VALID,104,VALID,0,VALID,23.3238,VALID,112,VALID,0.507422,
2012-11-23, 03:38:04,VALID,1009.07,VALID,0,VALID,104,VALID,0,VALID,23.3043,VALID,138,VALID,0.605859,
2012-11-23, 03:39:04,VALID,1009.11,VALID,0,VALID,104,VALID,0,VALID,23.3043,VALID,148,VALID,0.586719,
2012-11-23, 03:40:04,VALID,1009.14,VALID,0,VALID,104,VALID,0,VALID,23.3238,VALID,150,VALID,0.388281,
2012-11-23, 03:41:04,VALID,1009.16,VALID,0,VALID,104,VALID,0,VALID,23.3238,VALID,150,VALID,0,
2012-11-23, 03:42:04,VALID,1009.2,VALID,0,VALID,104,VALID,0,VALID,23.322,VALID,150,VALID,0,
2012-11-23, 03:43:04,VALID,1009.21,VALID,0,VALID,104,VALID,0,VALID,23.3433,VALID,150,VALID,0,
2012-11-23, 03:44:04,VALID,1009.24,VALID,0,VALID,104,VALID,0,VALID,23.3433,VALID,150,VALID,0,
2012-11-23, 03:45:04,VALID,1009.29,VALID,0,VALID,104,VALID,0,VALID,23.3628,VALID,150,VALID,0,
2012-11-23, 03:46:04,VALID,1009.29,VALID,0,VALID,104,VALID,0,VALID,23.3415,VALID,150,VALID,0,
2012-11-23, 03:47:04,VALID,1009.3,VALID,0,VALID,104,VALID,0,VALID,23.3823,VALID,150,VALID,0,
2012-11-23, 03:48:04,VALID,1009.28,VALID,0,VALID,104,VALID,0,VALID,23.3823,VALID,150,VALID,0,
2012-11-23, 03:49:04,VALID,1009.3,VALID,0,VALID,104,VALID,0,VALID,23.3823,VALID,150,VALID,0,
2012-11-23, 03:50:04,VALID,1009.27,VALID,0,VALID,104,VALID,0,VALID,23.4602,VALID,150,VALID,0,
2012-11-23, 03:51:04,VALID,1009.24,VALID,0,VALID,104,VALID,0,VALID,23.4212,VALID,150,VALID,0,
2012-11-23, 03:52:04,VALID,1009.24,VALID,0,VALID,104,VALID,0,VALID,23.4602,VALID,150,VALID,0,
2012-11-23, 03:53:04,VALID,1009.21,VALID,0,VALID,104,VALID,0,VALID,23.4212,VALID,150,VALID,0,
2012-11-23, 03:54:04,VALID,1009.21,VALID,0,VALID,104,VALID,0,VALID,23.4017,VALID,151,VALID,0,
2012-11-23, 03:55:04,VALID,1009.22,VALID,0,VALID,104,VALID,0,VALID,23.4389,VALID,150,VALID,0,